Regional Weather Roundup
Issued by NWS

Home | Current Version | Previous Version | Text Only | Print | Product List | Glossary Off
Versions: 1 2 3 4 5 6 7 8 9 10 11 12 13 14 15 16 17 18 19 20 21 22 23 24 25 26 27 28 29 30 31 32 33 34 35 36 37 38 39 40 41 42 43 44 45 46 47 48 49 50

000
ASUS43 KLMK 030802
RWRKY
KENTUCKY REGIONAL WEATHER ROUNDUP
NATIONAL WEATHER SERVICE LOUISVILLE KY
400 AM EDT FRI JUL 03 2015

NOTE "FAIR" INDICATES FEW OR NO CLOUDS BELOW 12,000 FEET
WITH NO SIGNIFICANT WEATHER AND/OR OBSTRUCTIONS TO VISIBILITY.

KYZ001>023-026-027-061>063-070>075-030900-
WESTERN AND SOUTH CENTRAL KENTUCKY

CITY           SKY/WX    TMP DP  RH WIND       PRES   REMARKS
PADUCAH        CLOUDY    72  70  93 N3        29.82F
HENDERSON      CLOUDY    72  68  88 NW5       29.82S
OWENSBORO      MOCLDY    73  71  93 CALM      29.83F
HOPKINSVILLE   CLOUDY    73  71  95 S5        29.82F
BOWLING GREEN  MOCLDY    73  70  90 W3        29.84F
GLASGOW        NOT AVBL
$$

KYZ024-025-028>034-038-045-046-053-030900-
NORTH CENTRAL KENTUCKY

CITY           SKY/WX    TMP DP  RH WIND       PRES   REMARKS
LOUISVILLE/SDF CLOUDY    73  70  90 NE7       29.83F
LOUISVILLE/LOU CLOUDY    72  70  93 NE5       29.84F
FORT KNOX      CLOUDY    72  70  95 S1        29.82F
$$

KYZ035>037-039>044-047>052-055>060-089>105-030900-
NORTHEAST KENTUCKY

CITY           SKY/WX    TMP DP  RH WIND       PRES   REMARKS
LEXINGTON      CLOUDY    70  68  93 E7        29.86F
COVINGTON      LGT RAIN  69  65  86 E12       29.89F
FRANKFORT      CLOUDY    70  67  90 E6        29.85F
$$

KYZ054-064>069-076>088-106>120-030900-
SOUTHEAST KENTUCKY

CITY           SKY/WX    TMP DP  RH WIND       PRES   REMARKS
JACKSON        CLOUDY    68  66  93 CALM      29.88F
LONDON         CLOUDY    71  66  84 CALM      29.88S
SOMERSET       NOT AVBL
MIDDLESBORO    NOT AVBL
MONTICELLO     CLOUDY    71  71 100 CALM      29.89F
$$



USA.gov is the U.S. government's official web portal to all federal, state and local government web resources and services.